Location: Chacón
(10.5789°N, 66.9317°W)
Time: 06:15:59
(UTC+00:00)

Sakura Rocket - Pass Details

Date: 16 August 2024
Orbit: 475 x 1710 km, 28.7° (Epoch: 16 September)

Event Time Altitude Azimuth Distance (km) Brightness Sun altitude
Exits shadow 06:59:51 20° 73° (ENE) 2,184 6.2 -46.1°
Drops below altitude 10° 07:02:27 10° 87° (E) 2,979 7.0 -45.6°
Sets 07:06:05 0° 96° (E) 4,177 7.8 -44.8°
